Regional Weather Roundup
Issued by NWS

Home | Current Version | Previous Version | Text Only | Print | Product List | Glossary On
Versions: 1 2 3 4 5 6 7 8 9 10 11 12 13 14 15 16 17 18 19 20 21 22 23 24 25 26 27 28 29 30 31 32 33 34 35 36 37 38 39 40 41 42 43 44 45 46 47 48 49 50
000
ASUS43 KBIS 291210
RWRND

NORTH DAKOTA REGIONAL WEATHER ROUNDUP
NATIONAL WEATHER SERVICE BISMARCK ND
700 AM CDT MON MAY 29 2017

NOTE: "FAIR" INDICATES FEW OR NO CLOUDS BELOW 12,000 FEET WITH NO
SIGNIFICANT WEATHER AND/OR OBSTRUCTIONS TO VISIBILITY.


NDZ001>003-009>011-017-291300-
NORTHWEST NORTH DAKOTA

CITY           SKY/WX    TMP DP  RH WIND       PRES   REMARKS
WILLISTON      FAIR      46  39  76 NW14      30.12R
6HR MIN TEMP:  44; 6HR MAX TEMP:  55; 6HR PCP: TRACE;

MINOT          MOCLDY    51  44  77 NW17      30.00S
MINOT AFB      CLOUDY    49  44  81 NW16      29.99S
$$

NDZ018>021-031>035-040>046-291300-
SOUTHWEST NORTH DAKOTA

CITY           SKY/WX    TMP DP  RH WIND       PRES   REMARKS
BISMARCK       MOCLDY    51  43  74 NW15G24   30.02R
6HR MIN TEMP:  50; 6HR MAX TEMP:  53;

DICKINSON      FAIR      40  36  86 W13       30.09R
GARRISON         N/A     47  43  86 NW16      30.02R
6HR MIN TEMP:  44; 6HR MAX TEMP:  50;

HETTINGER ARPT CLEAR     37  34  89 NW7       30.12S
$$

NDZ004>008-012>016-024-026-027-054-291300-
NORTHEAST NORTH DAKOTA

CITY           SKY/WX    TMP DP  RH WIND       PRES   REMARKS
GRAND FORKS    LGT RAIN  51  49  92 NW14      29.84R
GRND FRKS AFB  LGT RAIN  50  50 100 NW15      29.85R
DEVILS LAKE    LGT RAIN  48  46  93 NW16      29.91R
$$

NDZ022-023-025-028>030-036>039-047>053-291300-
SOUTHEAST NORTH DAKOTA

CITY           SKY/WX    TMP DP  RH WIND       PRES   REMARKS
FARGO          LGT RAIN  51  50  96 NW14      29.84R
6HR MIN TEMP:  51; 6HR MAX TEMP:  53; 6HR PCP:  0.02;

JAMESTOWN      CLOUDY    51  46  83 NW17G23   29.91R
$$




USA.gov is the U.S. government's official web portal to all federal, state and local government web resources and services.